Hourly Data Report for September 14, 2017

All times are specified in Local Standard Time (LST). Add 1 hour to adjust for Daylight Saving Time where and when it is observed.

ALGONQUIN PARK EAST GATE
ONTARIO

45°32'00.000" N
78°16'00.000" W
397.00 m
6080192
71581
TNK

Download Data

Hourly Data (September 2017)
Hourly Data Report for September 14, 2017
Temp Definition
°C
Dew Point Temp Definition
°C
Rel Hum Definition
%
Wind Dir Definition
10's deg

Wind Spd Definition
km/h
Visibility Definition
km
Stn Press Definition
kPa
Hmdx Definition


Wind Chill Definition


Weather Definition


TIME
00:00 9.4 7.9 91 LegendMM LegendMM   96.32     LegendNANA
01:00 8.8 7.4 91 LegendMM LegendMM   96.34     LegendNANA
02:00 8.5 7.2 92 LegendMM LegendMM   96.32     LegendNANA
03:00 8.1 6.9 92 LegendMM LegendMM   96.30     LegendNANA
04:00 7.6 6.5 92 LegendMM LegendMM   96.33     LegendNANA
05:00 7.4 6.2 92 LegendMM LegendMM   96.37     LegendNANA
06:00 8.3 7.1 92 LegendMM LegendMM   96.41     LegendNANA
07:00 9.2 7.9 92 LegendMM LegendMM   96.46     LegendNANA
08:00 13.1 11.2 88 LegendMM LegendMM   96.47     LegendNANA
09:00 17.5 13.4 77 LegendMM LegendMM   96.51     LegendNANA
10:00 21.5 11.7 54 LegendMM LegendMM   96.51     LegendNANA
11:00 22.5 11.3 49 LegendMM LegendMM   96.49     LegendNANA
12:00 24.0 8.0 36 LegendMM LegendMM   96.45     LegendNANA
13:00 24.0 8.5 37 LegendMM LegendMM   96.45 25   LegendNANA
14:00 25.0 9.5 38 LegendMM LegendMM   96.47 26   LegendNANA
15:00 25.0 10.9 41 LegendMM LegendMM   96.48 27   LegendNANA
16:00 24.1 10.3 42 LegendMM LegendMM   96.49 26   LegendNANA
17:00 22.0 15.1 65 LegendMM LegendMM   96.54 26   LegendNANA
18:00 19.0 14.3 74 LegendMM LegendMM   96.59     LegendNANA
19:00 16.4 13.5 83 LegendMM LegendMM   96.66     LegendNANA
20:00 14.5 12.4 88 LegendMM LegendMM   96.73     LegendNANA
21:00 13.0 11.1 88 LegendMM LegendMM   96.76     LegendNANA
22:00 11.9 10.4 91 LegendMM LegendMM   96.82     LegendNANA
23:00 11.0 9.5 91 LegendMM LegendMM   96.84     LegendNANA

Notes on Data Quality.

Legend

  • E = Estimated
  • M = Missing
  • NA = Not Available
  • ‡ = Partner data that is not subject to review by the National Climate Archives
Date modified: